Waarnemingen

Advertentie
Mijn weer
Düsseldorf, Duitsland (10400): temperatuur & dauwpunt: 14.08.2018 01:00:00 - 20.08.2018 01:00:00 (CEST)Düsseldorf, Duitsland (10400): temperatuur 5cm & temperatuur -5cm: 14.08.2018 01:00:00 - 20.08.2018 01:00:00 (CEST)Düsseldorf, Duitsland (10400): temperatuur -20cm & temperatuur -100cm: 14.08.2018 01:00:00 - 20.08.2018 01:00:00 (CEST)Düsseldorf, Duitsland (10400): windsnelheid & windstoten: 14.08.2018 01:00:00 - 20.08.2018 01:00:00 (CEST)Düsseldorf, Duitsland (10400): windrichting: 14.08.2018 01:00:00 - 20.08.2018 01:00:00 (CEST)Düsseldorf, Duitsland (10400): luchtdruk: 14.08.2018 01:00:00 - 20.08.2018 01:00:00 (CEST)Düsseldorf, Duitsland (10400): zicht: 14.08.2018 01:00:00 - 20.08.2018 01:00:00 (CEST)Düsseldorf, Duitsland (10400): Zonneschijnduur: 14.08.2018 01:00:00 - 20.08.2018 01:00:00 (CEST)Düsseldorf, Duitsland (10400): neerslag: 14.08.2018 01:00:00 - 20.08.2018 01:00:00 (CEST)
Datum & Tijd tt [°C] td [°C] tt 5cm [°C] tt -5cm [°C] tt -20cm [°C] tt -100cm [°C] ff [km/u] ff [kn] fx [km/u] fx [kn] dd ppp [hPa] vv [km] sd [min] rr [mm]
20.08.2018 01:00:00 20,7 15,9 19,7 22,1 23,4 21,4 8 5 11 6 ZW 1018,7 25 0 0,0
20.08.2018 00:00:00 19,6 15,2 18,3 22,2 23,8 21,4 4 2 11 6 ZW 1018,7 25 0 0,0
19.08.2018 23:00:00 21,4 15,2 19,3 22,9 24,2 21,4 8 4 20 11 W 1018,5 10 0 0,0
19.08.2018 22:00:00 22,1 15,2 19,0 23,9 24,6 21,4 9 5 15 8 WZW 1018,3 10 0 0,0
19.08.2018 21:00:00 23,3 15,0 21,5 25,3 25,0 21,4 9 5 21 11 W 1018,2 10 28 0,0
19.08.2018 20:00:00 24,7 14,4 24,1 27,1 25,1 21,5 14 7 28 15 W 1018,1 35 60 0,0
19.08.2018 19:00:00 25,6 14,0 26,2 28,8 24,9 21,5 18 10 29 16 WZW 1018,2 40 60 0,0
19.08.2018 18:00:00 25,4 13,4 27,4 30,0 24,5 21,5 20 11 34 18 WZW 1018,5 40 60 0,0
19.08.2018 17:00:00 25,4 12,8 28,4 30,4 23,8 21,5 18 10 34 18 ZW 1019,0 10 60 0,0
19.08.2018 16:00:00 24,2 12,0 28,0 29,9 23,0 21,5 21 12 33 18 WZW 1019,4 40 60 0,0
19.08.2018 15:00:00 24,0 12,5 27,7 28,9 22,0 21,5 19 10 36 19 WZW 1020,2 40 60 0,0
19.08.2018 14:00:00 22,5 11,7 26,0 26,9 21,1 21,5 22 12 35 19 WZW 1020,7 40 60 0,0
19.08.2018 13:00:00 22,5 12,1 26,0 24,1 20,5 21,5 20 11 29 15 ZW 1021,2 40 35 0,0
19.08.2018 12:00:00 20,7 12,6 22,3 21,7 20,1 21,5 21 11 37 20 WZW 1021,9 10 7 0,0
19.08.2018 11:00:00 21,0 11,7 23,1 20,6 19,7 21,5 24 13 39 21 ZW 1022,0 10 42 0,0
19.08.2018 10:00:00 18,9 12,3 20,1 19,3 19,4 21,5 18 10 23 13 ZW 1022,2 40 6 0,0
19.08.2018 09:00:00 18,3 13,3 19,3 18,0 19,4 21,5 14 8 18 10 ZW 1022,1 40 60 0,0
19.08.2018 08:00:00 16,7 13,0 16,1 16,9 19,5 21,5 9 5 16 9 Z 1022,4 30 39 0,0
19.08.2018 07:00:00 16,0 12,7 13,9 16,6 19,7 21,6 11 6 16 9 Z 1022,2 10 0 0,0
19.08.2018 06:00:00 14,8 12,3 12,7 16,7 20,0 21,6 2 1 11 6 - 1022,3 10 0 0,0
19.08.2018 05:00:00 14,9 12,4 11,4 17,0 20,3 21,6 11 6 15 8 ZZW 1022,3 30 0 0,0
19.08.2018 04:00:00 15,0 12,7 12,7 17,5 20,6 21,6 6 3 9 5 ZW 1022,5 30 0 0,0
19.08.2018 03:00:00 15,3 13,1 13,0 17,9 21,0 21,6 5 3 9 5 ZZW 1022,6 30 0 0,0
19.08.2018 02:00:00 15,2 13,4 13,1 18,4 21,3 21,6 5 3 5 3 ZW 1022,9 30 0 0,0
19.08.2018 01:00:00 15,8 13,3 13,0 18,9 21,7 21,6 2 1 4 2 - 1023,1 10 0 0,0
19.08.2018 00:00:00 16,3 13,3 13,4 19,5 22,1 21,6 2 1 4 2 - 1022,7 10 0 0,0
18.08.2018 23:00:00 17,5 13,1 14,5 20,3 22,5 21,7 0 0 9 5 N 1022,4 10 0 0,0
18.08.2018 22:00:00 19,7 13,1 18,2 21,1 22,9 21,7 8 4 18 10 NW 1022,3 40 0 0,0
18.08.2018 21:00:00 21,0 12,9 19,7 22,3 23,2 21,7 10 5 18 10 NW 1021,9 45 0 0,0
18.08.2018 20:00:00 22,4 12,3 21,8 24,1 23,3 21,7 13 7 22 12 NW 1021,5 50 52 0,0
18.08.2018 19:00:00 23,8 10,4 24,8 25,4 23,2 21,7 13 7 26 14 W 1021,2 10 60 0,0
18.08.2018 18:00:00 23,8 9,2 25,3 26,3 22,9 21,7 11 6 25 14 W 1021,2 50 60 0,0
18.08.2018 17:00:00 24,5 8,8 27,3 26,3 22,5 21,7 16 9 28 15 WZW 1021,3 10 60 0,0
18.08.2018 16:00:00 24,3 10,1 27,4 25,8 22,1 21,8 15 8 29 16 W 1021,5 45 60 0,0
18.08.2018 15:00:00 24,1 10,2 27,2 25,1 21,5 21,8 18 10 32 17 ZW 1022,1 45 60 0,0
18.08.2018 14:00:00 22,5 10,6 25,9 24,3 21,0 21,8 18 10 31 17 WZW 1022,6 10 51 0,0
18.08.2018 13:00:00 22,0 10,7 25,3 23,7 20,4 21,8 18 10 31 17 WZW 1022,7 10 59 0,0
18.08.2018 12:00:00 20,8 9,8 23,7 22,6 19,7 21,8 14 8 22 12 WZW 1023,0 45 44 0,0
18.08.2018 11:00:00 20,1 10,8 22,1 20,4 19,2 21,8 10 5 17 9 ZW 1023,1 40 60 0,0
18.08.2018 10:00:00 18,6 11,3 19,7 18,5 18,8 21,8 10 6 16 8 WZW 1022,9 40 59 0,0
18.08.2018 09:00:00 16,7 11,5 16,9 16,8 18,7 21,8 7 4 11 6 ZW 1022,8 40 60 0,0
18.08.2018 08:00:00 14,7 12,0 13,7 15,5 18,9 21,8 8 4 9 5 ZZO 1022,7 35 47 0,0
18.08.2018 07:00:00 12,1 10,4 10,0 15,1 19,2 21,8 5 3 9 5 ZW 1022,3 10 0 0,0
18.08.2018 06:00:00 11,7 10,7 8,8 15,5 19,6 21,8 5 3 8 4 ZW 1022,2 10 0 0,0
18.08.2018 05:00:00 12,3 11,3 9,8 16,1 19,9 21,8 2 1 4 2 WNW 1021,9 45 0 0,0
18.08.2018 04:00:00 13,0 11,8 11,2 16,4 20,3 21,8 2 1 5 3 NW 1021,9 45 0 0,0
18.08.2018 03:00:00 12,9 11,4 11,2 16,7 20,7 21,8 3 2 5 3 O 1021,6 50 0 0,0
18.08.2018 02:00:00 13,8 11,6 11,1 17,3 21,1 21,8 2 1 9 5 O 1021,6 50 0 0,0
18.08.2018 01:00:00 16,0 11,8 12,6 18,0 21,5 21,8 6 4 9 5 WNW 1021,4 50 0 0,0
18.08.2018 00:00:00 16,9 12,2 12,7 18,6 22,0 21,8 5 3 9 5 NW 1020,9 10 0 0,0
17.08.2018 23:00:00 16,2 11,9 13,1 19,3 22,5 21,8 4 2 9 5 - 1020,7 10 0 0,0
17.08.2018 22:00:00 17,8 12,1 13,3 20,3 22,9 21,8 7 4 11 6 NW 1020,2 50 0 0,0
17.08.2018 21:00:00 19,7 11,1 15,5 21,6 23,3 21,8 5 3 13 7 NW 1019,5 50 11 0,0
17.08.2018 20:00:00 22,1 9,4 20,9 23,0 23,5 21,8 8 4 13 7 NW 1019,1 10 39 0,0
17.08.2018 19:00:00 22,6 9,8 22,3 24,3 23,5 21,8 5 3 26 14 - 1018,8 10 42 0,0
17.08.2018 18:00:00 21,9 10,0 21,8 24,7 23,4 21,8 10 5 22 12 N 1018,8 45 27 0,0
17.08.2018 17:00:00 22,9 11,3 26,0 26,3 23,0 21,8 15 8 24 13 N 1018,9 10 59 0,0
17.08.2018 16:00:00 21,4 11,5 24,8 25,4 22,4 21,8 14 7 26 14 N 1019,1 20 38 0,0
17.08.2018 15:00:00 20,2 13,5 21,9 24,5 21,9 21,8 11 6 18 10 WNW 1019,2 10 31 0,0
17.08.2018 14:00:00 19,3 14,7 21,7 22,0 21,7 21,8 11 6 24 13 NNW 1019,1 20 0 0,0
17.08.2018 13:00:00 18,2 15,2 18,2 22,1 21,4 21,8 13 7 22 12 NNW 1018,7 10 7 0,0
17.08.2018 12:00:00 17,8 15,8 18,4 20,4 21,3 21,8 9 5 18 10 N 1018,6 10 0 0,0
17.08.2018 11:00:00 17,2 15,6 17,0 20,4 21,3 21,8 11 6 18 10 WNW 1018,2 15 0 0,0
17.08.2018 10:00:00 17,1 15,7 17,1 19,4 21,4 21,8 4 2 20 11 WNW 1017,2 18 0 0,5
17.08.2018 09:00:00 16,2 15,3 16,0 19,0 21,7 21,8 11 6 16 9 O 1017,0 10 0 4,5
17.08.2018 08:00:00 16,5 15,3 16,0 19,3 22,0 21,8 10 5 24 13 NNO 1016,9 8 0 4,8
17.08.2018 07:00:00 18,3 13,9 18,1 19,9 22,2 21,8 21 11 29 16 WNW 1016,8 10 0 0,0
17.08.2018 06:00:00 18,2 14,3 17,2 20,0 22,5 21,8 15 8 32 17 N 1015,3 20 0 0,0
17.08.2018 05:00:00 18,4 14,2 17,9 20,2 22,8 21,8 18 10 34 18 N 1015,6 10 0 0,0
17.08.2018 04:00:00 18,7 14,4 18,0 20,5 23,1 21,8 21 12 33 18 NW 1015,0 15 0 0,0
17.08.2018 03:00:00 18,6 14,0 16,7 20,9 23,5 21,8 9 5 16 9 NO 1013,9 20 0 0,0
17.08.2018 02:00:00 18,3 14,2 16,4 21,5 23,9 21,8 6 3 13 7 NNO 1014,2 20 0 0,0
17.08.2018 01:00:00 19,6 14,2 17,8 22,2 24,4 21,8 10 5 15 8 ONO 1014,4 25 0 0,0
17.08.2018 00:00:00 20,0 14,5 18,7 23,0 24,8 21,8 10 5 13 7 NNO 1014,4 25 0 0,0
16.08.2018 23:00:00 21,1 14,4 19,9 23,9 25,3 21,8 9 5 16 9 NNO 1014,2 30 0 0,0
16.08.2018 22:00:00 22,0 14,2 20,3 25,1 25,8 21,8 15 8 21 11 NNO 1014,0 10 0 0,0
16.08.2018 21:00:00 23,8 13,5 21,8 26,7 26,2 21,9 8 4 15 8 N 1013,6 10 19 0,0
16.08.2018 20:00:00 26,0 13,1 25,8 28,8 26,3 21,9 10 5 17 9 NNW 1013,6 35 60 0,0
16.08.2018 19:00:00 26,9 13,0 27,7 30,5 26,2 21,9 9 5 18 10 NW 1013,6 10 60 0,0
16.08.2018 18:00:00 27,0 12,7 28,7 31,8 25,7 21,9 15 8 22 12 WNW 1013,9 10 60 0,0
16.08.2018 17:00:00 27,3 13,1 30,1 32,2 25,1 21,9 8 4 32 17 WNW 1014,1 10 60 0,0
16.08.2018 16:00:00 26,9 13,2 30,4 31,7 24,2 21,9 16 9 29 15 W 1014,5 40 60 0,0
16.08.2018 15:00:00 26,4 14,0 30,0 30,7 23,3 21,9 13 7 28 15 Z 1015,0 10 60 0,0
16.08.2018 14:00:00 25,3 13,5 29,2 29,5 22,3 21,9 15 8 31 17 Z 1015,5 35 60 0,0
16.08.2018 13:00:00 24,4 13,8 28,5 27,2 21,3 22,0 14 8 26 14 WZW 1016,1 35 55 0,0
16.08.2018 12:00:00 22,4 13,5 26,3 24,7 20,5 22,0 15 8 29 15 ZW 1016,4 10 57 0,0
16.08.2018 11:00:00 21,4 13,5 23,6 21,5 20,1 22,0 9 5 20 11 ZW 1017,0 10 21 0,0
16.08.2018 10:00:00 20,0 14,4 21,5 19,9 19,8 22,0 11 6 16 9 ZZW 1017,3 20 1 0,0
16.08.2018 09:00:00 18,5 14,4 18,9 18,6 19,7 22,0 11 6 16 9 Z 1017,4 10 0 0,0
16.08.2018 08:00:00 17,4 14,9 17,5 17,8 19,8 22,0 8 4 18 10 Z 1017,9 30 0 0,0
16.08.2018 07:00:00 16,4 14,6 15,7 17,0 19,9 22,0 13 7 21 11 ZZO 1017,7 30 0 0,0
16.08.2018 06:00:00 15,9 14,2 14,3 17,0 20,2 22,0 13 7 16 9 ZZO 1017,6 35 0 0,0
16.08.2018 05:00:00 15,8 14,3 14,0 17,2 20,5 22,0 13 7 18 10 ZZO 1018,0 35 0 0,0
16.08.2018 04:00:00 14,5 13,5 12,9 17,6 20,8 22,1 8 4 11 6 ZZO 1018,5 10 0 0,0
16.08.2018 03:00:00 15,8 14,2 12,9 18,1 21,1 22,1 8 4 9 5 ZW 1018,6 10 0 0,0
16.08.2018 02:00:00 15,7 14,7 13,2 18,6 21,5 22,1 4 2 5 3 OZO 1018,7 10 0 0,0
16.08.2018 01:00:00 16,4 14,8 13,5 19,1 21,9 22,1 2 1 4 2 - 1018,8 10 0 0,0
16.08.2018 00:00:00 16,8 15,0 14,1 19,8 22,2 22,1 0 0 9 5 N 1018,9 35 0 0,0
15.08.2018 23:00:00 19,3 15,1 16,8 20,6 22,6 22,2 8 4 9 5 W 1018,9 10 0 0,0
15.08.2018 22:00:00 19,8 15,2 16,1 21,5 22,9 22,2 6 4 9 5 WZW 1019,0 35 0 0,0
15.08.2018 21:00:00 21,0 14,8 18,2 22,7 23,1 22,2 5 3 16 9 WZW 1018,7 10 5 0,0
15.08.2018 20:00:00 22,7 14,5 22,7 24,1 23,2 22,2 16 9 21 11 W 1018,7 35 9 0,0
15.08.2018 19:00:00 23,0 14,5 23,7 25,1 23,0 22,2 18 10 28 15 W 1018,8 10 19 0,0
15.08.2018 18:00:00 24,1 13,8 25,5 25,3 22,8 22,3 14 7 25 14 ZW 1018,8 35 3 0,0
15.08.2018 17:00:00 23,7 14,3 24,7 25,9 22,3 22,3 11 6 24 13 WZW 1019,1 10 15 0,0
15.08.2018 16:00:00 23,7 15,3 27,7 25,2 21,7 22,3 16 9 28 15 W 1019,3 30 12 0,0
15.08.2018 15:00:00 22,7 15,5 25,8 24,0 21,2 22,3 18 10 29 16 WZW 1019,7 10 0 0,0
15.08.2018 14:00:00 22,2 16,0 24,6 22,8 20,8 22,3 16 9 25 13 ZW 1019,7 10 0 0,0
15.08.2018 13:00:00 21,2 15,5 23,4 21,8 20,4 22,3 14 7 25 14 ZZW 1020,0 25 0 0,0
15.08.2018 12:00:00 20,0 15,1 21,7 20,6 20,2 22,4 15 8 22 12 ZW 1020,1 10 0 0,0
15.08.2018 11:00:00 18,9 14,6 19,9 19,5 20,1 22,4 14 8 21 11 ZW 1020,1 35 0 0,0
15.08.2018 10:00:00 18,3 14,1 18,6 19,1 20,0 22,4 14 8 21 11 ZW 1019,7 35 0 0,0
15.08.2018 09:00:00 18,1 13,6 19,2 18,6 20,0 22,4 16 9 26 14 ZW 1019,3 35 8 0,0
15.08.2018 08:00:00 17,4 13,6 17,4 17,9 20,1 22,4 16 9 22 12 ZZW 1019,1 40 0 0,0
15.08.2018 07:00:00 17,0 13,7 16,3 17,9 20,2 22,4 12 6 16 9 ZW 1018,6 30 0 0,0
15.08.2018 06:00:00 16,8 13,4 15,5 18,0 20,4 22,5 9 5 13 7 ZW 1018,3 10 0 0,0
15.08.2018 05:00:00 17,5 13,0 16,9 18,2 20,5 22,5 10 6 15 8 ZW 1018,4 45 0 0,0
15.08.2018 04:00:00 17,6 12,7 17,0 18,3 20,7 22,5 12 6 14 8 ZW 1018,3 50 0 0,0
15.08.2018 03:00:00 17,5 12,7 16,8 18,5 20,9 22,5 9 5 11 6 ZW 1018,7 50 0 0,0
15.08.2018 02:00:00 17,3 12,4 16,5 18,4 21,2 22,5 11 6 13 7 ZW 1018,7 55 0 0,0
15.08.2018 01:00:00 17,8 11,5 15,6 18,5 21,5 22,6 11 6 18 10 WZW 1018,8 10 0 0,0
15.08.2018 00:00:00 19,3 11,4 18,4 19,4 21,8 22,6 14 8 22 12 W 1018,3 55 0 0,0
14.08.2018 23:00:00 19,9 14,9 18,6 20,2 22,0 22,6 5 3 11 6 W 1017,9 10 0 0,0
14.08.2018 22:00:00 20,4 14,4 19,9 20,5 22,3 22,6 9 5 21 11 NW 1017,8 10 0 0,0
14.08.2018 21:00:00 21,0 14,6 20,5 21,0 22,5 22,7 11 6 21 11 WNW 1017,1 10 0 0,0
14.08.2018 20:00:00 21,3 14,5 21,0 21,5 22,8 22,7 13 7 34 18 W 1016,4 10 0 0,0
14.08.2018 19:00:00 22,7 13,5 22,4 22,4 23,0 22,7 22 12 34 18 WNW 1016,1 10 1 0,0
14.08.2018 18:00:00 23,6 12,2 23,7 24,2 23,0 22,7 18 10 38 20 WNW 1015,4 10 26 0,0
14.08.2018 17:00:00 24,7 12,6 26,5 24,9 22,7 22,7 26 14 35 19 WNW 1015,0 10 46 0,0
14.08.2018 16:00:00 25,2 13,0 28,1 24,7 22,3 22,8 24 13 34 18 WNW 1014,8 50 40 0,0
14.08.2018 15:00:00 23,9 12,7 26,4 24,5 21,9 22,8 24 13 40 22 W 1014,6 10 32 0,0
14.08.2018 14:00:00 22,6 12,7 24,0 23,8 21,4 22,8 22 12 37 20 WNW 1014,5 10 28 0,0
14.08.2018 13:00:00 21,5 13,0 22,7 22,8 21,0 22,8 23 13 36 20 W 1014,2 40 24 0,0
14.08.2018 12:00:00 20,8 13,4 22,1 21,3 20,7 22,8 22 12 35 19 W 1013,9 35 19 0,0
14.08.2018 11:00:00 19,2 14,8 19,7 20,5 20,4 22,8 18 10 35 19 W 1013,7 30 6 0,0
14.08.2018 10:00:00 18,2 15,8 19,7 19,4 20,2 22,9 22 12 29 16 WZW 1013,2 10 0 0,0
14.08.2018 09:00:00 17,2 15,6 17,0 18,6 20,2 22,9 21 11 29 16 WZW 1012,5 9 0 0,1
14.08.2018 08:00:00 16,6 15,2 16,1 18,1 20,3 22,9 19 10 33 18 WZW 1011,9 9 0 0,3
14.08.2018 07:00:00 17,2 14,8 17,0 18,1 20,4 22,9 21 11 29 16 ZW 1011,2 10 0 0,0
14.08.2018 06:00:00 17,4 14,7 17,2 18,2 20,5 22,9 16 9 28 15 WZW 1010,7 15 0 0,0
14.08.2018 05:00:00 17,5 15,0 17,1 18,2 20,7 22,9 18 10 26 14 ZW 1010,4 15 0 0,0
14.08.2018 04:00:00 17,2 15,1 16,9 18,1 20,8 22,9 18 10 25 13 ZW 1010,3 10 0 0,0
14.08.2018 03:00:00 16,8 15,0 16,1 18,1 21,0 22,9 16 9 24 13 ZW 1010,1 10 0 0,0
14.08.2018 02:00:00 16,9 15,0 16,2 18,4 21,3 23,0 15 8 21 11 ZW 1010,0 10 0 0,0
14.08.2018 01:00:00 17,0 14,8 16,5 18,3 21,6 23,0 14 8 21 11 ZW 1009,6 45 0 0,0

tt = temperatuur
td = dauwpunt
tt 5cm = temperatuur 5cm
tt -5cm = temperatuur -5cm
tt -20cm = temperatuur -20cm
tt -100cm = temperatuur -100cm
ff = windsnelheid
fx = windstoten
dd = windrichting
ppp = luchtdruk
vv = zicht
sd = Zonneschijnduur
rr = neerslag

Weerstations in de omgeving